Content
SEND FEEDBACK

Daily
Averages
Monthly
Summary
United States of America

ASHEVILLE, NORTH CAROLINA


Home > North America > United States > North Carolina
Elevation: 2240 feet     Latitude: 35 36N     Longitude: 082 32W

WEATHER
 
SELECT A DAY
Number of Records: 229,634;   Date Range: 1/1/95 - 10/29/14
 
SHARE

PRINT THIS DATA

[ ← Previous Day ]
WEATHER ALMANAC - JUNE 26, 2013
[ Next Day → ]
[ °C ]   °F
We're sorry. There is no daily almanac available for Asheville, North Carolina on June 26, 2013.
WEATHER BY HOUR - JUNE 26, 2013
[ °C ]   °F
Local TimeTemperatureDewpointHumidityBarometerVisibilityWind DirectionWind SpeedGust SpeedPrecipitationEventsConditions
1:54 AM66.0 °F64.0 °F93 %30.04 in10.0 miCalmClear
2:54 AM64.0 °F63.0 °F96 %30.02 in5.0 miCalmScattered Clouds
3:06 AM64.4 °F64.4 °F100 %30.09 in4.0 miCalmMostly Cloudy
3:08 AM64.4 °F64.4 °F100 %30.09 in1.5 miSouth (180°)3.5 mphMostly Cloudy
3:15 AM64.4 °F64.4 °F100 %30.09 in1.2 miCalmOvercast
3:18 AM64.4 °F64.4 °F100 %30.08 in3.0 miCalmOvercast
3:45 AM64.4 °F64.4 °F100 %30.09 in1.8 miCalmOvercast
3:54 AM64.0 °F64.0 °F100 %30.01 in1.0 miCalmOvercast
4:18 AM64.4 °F64.4 °F100 %30.09 in2.0 miCalmOvercast
4:23 AM64.4 °F64.4 °F100 %30.09 in1.2 miCalmOvercast
4:33 AM64.4 °F64.4 °F100 %30.09 in0.8 miCalmMist
4:40 AM64.4 °F64.4 °F100 %30.09 in1.5 miCalmOvercast
4:54 AM64.0 °F64.0 °F100 %30.02 in1.5 miNNW (330°)3.5 mphOvercast
5:05 AM64.4 °F64.4 °F100 %30.10 in0.8 miNW (310°)3.5 mphOvercast
5:34 AM64.4 °F62.6 °F94 %30.11 in1.5 miCalmOvercast
5:37 AM64.4 °F64.4 °F100 %30.11 in3.0 miCalmOvercast
5:51 AM64.4 °F64.4 °F100 %30.11 in1.8 miNW (320°)4.6 mphOvercast
5:54 AM64.0 °F64.0 °F100 %30.05 in1.5 miCalmOvercast
6:13 AM64.4 °F62.6 °F94 %30.12 in3.0 miNNW (330°)4.6 mphOvercast
6:39 AM64.4 °F64.4 °F100 %30.13 in1.5 miNNW (340°)9.2 mphOvercast
6:41 AM64.4 °F64.4 °F100 %30.13 in0.8 miNNW (340°)8.1 mphOvercast
6:50 AM64.4 °F64.4 °F100 %30.13 in0.2 miNNW (340°)6.9 mphFogFog
6:54 AM64.0 °F64.0 °F100 %30.06 in0.2 miNNW (330°)5.8 mphFogFog
7:07 AM64.4 °F64.4 °F100 %30.13 in0.5 miNNW (330°)4.6 mphFogFog
7:17 AM64.4 °F64.4 °F100 %30.13 in1.5 miWNW (290°)4.6 mphOvercast
7:24 AM64.4 °F64.4 °F100 %30.13 in0.8 miCalmOvercast
7:35 AM64.4 °F64.4 °F100 %30.13 in0.2 miCalmFogFog
7:51 AM64.4 °F64.4 °F100 %30.13 in1.0 miCalmOvercast
7:52 AM64.9 °F64.9 °F100 %30.07 in1.0 miCalmOvercast
7:56 AM64.4 °F64.4 °F100 %30.14 in2.0 miCalmOvercast
8:04 AM64.4 °F64.4 °F100 %30.14 in3.0 miCalmOvercast
8:54 AM66.9 °F66.0 °F97 %30.07 in5.0 miCalmMostly Cloudy
9:08 AM69.8 °F66.2 °F88 %30.14 in7.0 miCalmScattered Clouds
9:54 AM75.0 °F66.9 °F76 %30.04 in10.0 miVariable3.5 mphClear
10:54 AM78.1 °F66.0 °F66 %30.03 in10.0 miNorth (350°)4.6 mphClear
11:54 AM79.0 °F66.9 °F66 %30.03 in10.0 miSouth (190°)4.6 mphScattered Clouds
12:40 PM78.8 °F66.2 °F65 %30.10 in5.0 miWest (280°)5.8 mphThunderstorm
12:54 PM73.9 °F70.0 °F87 %30.04 in7.0 miSSE (160°)13.8 mph19.6 mph0.02 inRain-ThunderstormLight Thunderstorms and Rain
1:30 PM78.8 °F69.8 °F74 %30.10 in10.0 miSouth (190°)4.6 mph0.01 inClear
1:54 PM80.1 °F66.9 °F64 %30.01 in10.0 miSSW (210°)4.6 mph0.01 inScattered Clouds
2:54 PM84.9 °F69.1 °F59 %29.98 in10.0 miCalmPartly Cloudy
3:54 PM82.0 °F69.1 °F65 %29.96 in10.0 miSouth (190°)5.8 mphClear
4:18 PM80.6 °F68.0 °F65 %30.03 in10.0 miSouth (180°)6.9 mphThunderstormPartly Cloudy
4:41 PM73.4 °F69.8 °F88 %30.06 in1.5 miNorth (10°)15.0 mph25.3 mph0.03 inRain-ThunderstormHeavy Thunderstorms and Rain
4:43 PM73.4 °F68.0 °F83 %30.07 in0.8 miNorth (360°)9.2 mph25.3 mph0.13 inRain-ThunderstormHeavy Thunderstorms and Rain
4:51 PM71.6 °F68.0 °F88 %30.04 in0.2 miESE (120°)9.2 mph19.6 mph0.73 inFog-Rain-ThunderstormThunderstorms and Rain
4:54 PM73.0 °F66.9 °F81 %29.98 in0.5 miVariable3.5 mph19.6 mph0.79 inRain-ThunderstormLight Thunderstorms and Rain
4:57 PM71.6 °F68.0 °F88 %30.04 in2.5 miVariable3.5 mph0.00 inRain-ThunderstormLight Thunderstorms and Rain
5:04 PM73.4 °F66.2 °F78 %30.03 in10.0 miCalm0.00 inThunderstormThunderstorm
5:10 PM73.4 °F66.2 °F78 %30.02 in10.0 miESE (120°)5.8 mph0.00 inPartly Cloudy
5:54 PM73.0 °F66.9 °F81 %29.96 in10.0 miCalm0.00 inMostly Cloudy
6:54 PM75.0 °F69.1 °F82 %29.96 in10.0 miCalmClear
7:54 PM73.9 °F70.0 °F87 %29.95 in10.0 miCalmClear
8:54 PM73.0 °F70.0 °F90 %29.94 in10.0 miSSW (200°)3.5 mphClear
9:54 PM71.1 °F69.1 °F93 %29.95 in9.0 miCalmClear
10:54 PM70.0 °F68.0 °F93 %29.95 in10.0 miSE (130°)3.5 mphClear
11:54 PM70.0 °F68.0 °F93 %29.96 in10.0 miSE (140°)4.6 mphClear
Hourly data recorded from KAVL, located miles away from Asheville, North Carolina







STORIES FROM OUR PARTNERS